TimeEDT,TemperatureF,Dew PointF,Humidity,Sea Level PressureIn,VisibilityMPH,Wind Direction,Wind SpeedMPH,Gust SpeedMPH,PrecipitationIn,Events,Conditions,WindDirDegrees,DateUTC
12:53 AM,73.0,66.9,81,30.13,10.0,NE,6.9,-,N/A,,Clear,50,2012-10-14 04:53:00
1:53 AM,72.0,66.9,84,30.12,10.0,NE,8.1,-,N/A,,Partly Cloudy,40,2012-10-14 05:53:00
2:53 AM,71.1,66.0,84,30.10,10.0,NE,4.6,-,N/A,,Partly Cloudy,50,2012-10-14 06:53:00
3:53 AM,72.0,66.9,84,30.09,10.0,NNE,5.8,-,N/A,,Partly Cloudy,30,2012-10-14 07:53:00
4:53 AM,72.0,66.9,84,30.08,10.0,NE,8.1,-,N/A,,Partly Cloudy,40,2012-10-14 08:53:00
5:53 AM,72.0,68.0,87,30.09,10.0,NNE,6.9,-,N/A,,Mostly Cloudy,30,2012-10-14 09:53:00
6:53 AM,72.0,66.9,84,30.09,10.0,NE,6.9,-,N/A,,Partly Cloudy,40,2012-10-14 10:53:00
7:53 AM,73.0,66.9,81,30.09,10.0,NNE,6.9,-,N/A,,Clear,30,2012-10-14 11:53:00
8:53 AM,77.0,66.9,71,30.10,10.0,ENE,9.2,-,N/A,,Clear,60,2012-10-14 12:53:00
9:53 AM,81.0,69.1,67,30.11,10.0,East,11.5,-,N/A,,Partly Cloudy,90,2012-10-14 13:53:00
10:53 AM,82.0,68.0,62,30.11,10.0,East,13.8,-,N/A,,Partly Cloudy,100,2012-10-14 14:53:00
11:53 AM,84.0,68.0,58,30.10,10.0,East,12.7,-,N/A,,Scattered Clouds,100,2012-10-14 15:53:00
12:53 PM,87.1,69.1,55,30.08,10.0,ESE,11.5,-,N/A,,Scattered Clouds,120,2012-10-14 16:53:00
1:53 PM,87.1,68.0,53,30.05,10.0,ESE,11.5,-,N/A,,Mostly Cloudy,110,2012-10-14 17:53:00
2:53 PM,86.0,68.0,55,30.04,10.0,East,13.8,-,N/A,,Mostly Cloudy,80,2012-10-14 18:53:00
3:53 PM,87.1,69.1,55,30.03,10.0,NE,10.4,-,N/A,,Scattered Clouds,50,2012-10-14 19:53:00
4:53 PM,84.9,68.0,57,30.02,10.0,East,10.4,-,N/A,,Partly Cloudy,90,2012-10-14 20:53:00
5:53 PM,82.9,68.0,60,30.02,10.0,East,11.5,-,N/A,,Scattered Clouds,80,2012-10-14 21:53:00
6:53 PM,80.1,69.1,69,30.02,10.0,ENE,9.2,-,N/A,,Scattered Clouds,70,2012-10-14 22:53:00
7:53 PM,79.0,70.0,74,30.03,10.0,ENE,8.1,-,N/A,,Partly Cloudy,60,2012-10-14 23:53:00
8:53 PM,78.1,70.0,76,30.03,10.0,NE,9.2,-,N/A,,Partly Cloudy,50,2012-10-15 00:53:00
9:53 PM,75.9,71.1,85,30.02,10.0,ENE,6.9,-,N/A,,Clear,60,2012-10-15 01:53:00
10:53 PM,75.0,72.0,90,30.02,10.0,ENE,4.6,-,N/A,,Clear,70,2012-10-15 02:53:00
11:53 PM,73.9,71.1,91,30.01,10.0,ENE,3.5,-,N/A,,Clear,60,2012-10-15 03:53:00